Theta_e
343 343 341 341 340 341 341 343 346 347 348 350 350 351 350 351 353 353 354 355 356 356 356 355 356 356 356 354 354 353 355 354 356 356 354 354 353 353 354 354 351 349
343 343 345 342 341 342 341 341 344 347 348 349 350 351 351 350 352 353 353 354 355 355 355 355 355 355 354 353 352 352 353 354 354 359 356 354 354 354 354 354 354 352
343 342 343 342 340 339 341 341 341 345 347 349 350 351 351 351 351 352 353 354 354 355 354 354 354 354 354 352 352 353 353 352 353 355 356 355 355 354 354 355 354 354
342 342 343 343 342 340 340 341 340 342 346 347 348 350 352 352 351 351 351 358 353 353 353 353 354 354 354 353 352 351 353 353 354 354 354 355 355 354 354 353 355 354
343 342 342 343 343 341 340 340 340 340 343 346 348 349 351 350 350 350 350 351 352 352 352 352 353 354 354 353 352 351 351 351 351 351 352 352 353 353 354 352 351 351
344 342 342 343 343 340 339 339 340 340 342 344 346 349 349 350 350 349 349 349 351 352 352 352 352 353 354 353 352 352 351 351 351 350 350 350 351 352 354 351 349 348
343 342 341 342 343 340 339 339 340 341 341 344 346 347 349 349 349 349 349 349 350 352 352 351 351 352 353 353 352 351 351 351 350 350 350 349 349 349 351 350 350 348
343 342 341 341 342 341 339 339 339 340 340 342 344 346 348 348 348 349 349 349 349 349 351 351 351 351 352 353 352 351 351 352 351 350 350 349 347 348 349 351 349 347
344 342 341 340 340 341 341 339 339 339 340 339 342 344 347 348 348 348 348 347 348 349 349 350 351 351 352 353 352 352 351 352 353 351 350 350 349 349 349 349 348 348
343 343 341 340 339 340 341 341 340 340 341 338 339 342 344 347 347 347 346 345 346 348 349 349 350 351 351 352 353 352 352 351 352 351 351 351 351 350 350 349 349 348
343 343 341 340 339 340 340 341 341 341 341 340 338 338 340 343 346 346 344 343 344 344 346 348 349 350 350 351 353 353 353 352 352 351 351 351 351 351 356 350 350 349
343 342 342 341 340 340 339 340 340 340 341 342 341 338 338 340 342 344 345 343 343 343 344 346 348 349 350 351 352 353 353 353 352 352 352 351 351 351 351 352 351 350
344 343 343 342 341 340 340 340 339 339 339 340 343 342 340 339 340 341 343 344 344 344 344 345 346 348 349 350 351 351 352 352 352 352 352 351 351 352 352 352 352 352
346 345 344 343 343 342 341 340 340 339 338 338 340 342 342 341 340 341 341 343 343 344 345 346 345 346 348 349 350 350 351 352 352 352 352 351 351 351 352 352 352 353
347 347 346 345 345 343 342 340 339 339 339 338 337 338 342 343 343 342 341 341 341 343 345 346 346 346 347 348 349 350 350 350 351 352 351 351 350 351 350 351 352 353
348 348 347 346 345 344 343 342 341 339 338 338 337 337 337 339 341 342 342 342 341 340 341 344 346 347 345 337 341 350 349 350 351 351 351 351 350 350 350 350 351 351
349 348 348 346 346 345 344 344 342 341 340 338 337 337 336 336 338 338 339 341 342 341 340 341 344 345 337 331 332 336 348 349 349 349 350 350 350 349 349 349 350 351
350 350 349 348 347 346 345 345 344 343 341 339 338 337 337 337 336 336 337 338 340 341 341 341 341 337 331 330 330 330 337 349 348 348 349 349 350 350 350 349 349 350
351 351 350 350 349 348 347 347 345 344 342 341 339 339 338 337 336 336 336 337 337 338 339 341 342 334 330 328 329 329 329 339 348 348 348 349 349 350 350 350 350 349
352 352 351 351 352 351 350 348 347 345 345 344 343 342 339 338 337 337 337 337 337 337 338 340 341 334 327 326 326 327 328 332 345 348 348 348 349 350 351 350 350 349
352 352 352 353 353 353 352 351 349 348 347 346 345 343 341 340 339 338 338 338 338 338 338 339 341 331 325 323 323 324 326 330 343 347 348 348 349 350 350 351 351 351
353 353 353 353 353 353 352 352 351 350 349 349 348 347 345 344 342 342 340 340 340 339 339 339 341 329 324 322 321 321 325 336 341 345 346 348 348 348 349 350 351 351
354 354 354 354 354 353 353 353 352 351 351 351 349 348 347 345 344 343 343 342 341 341 340 340 340 332 323 320 319 320 323 337 341 344 346 347 348 349 349 350 350 350
354 354 354 354 354 353 353 354 354 354 353 353 350 349 347 347 346 345 345 344 343 342 342 341 341 335 322 319 318 318 325 337 341 343 344 346 347 348 349 349 351 359
353 354 354 354 354 354 355 354 354 354 354 353 352 351 349 349 348 346 345 345 345 344 343 341 342 336 322 319 318 317 324 338 341 342 343 344 346 347 348 350 349 356
352 353 353 353 353 354 355 355 355 354 354 353 352 352 350 350 349 347 345 345 346 346 346 344 343 343 338 318 317 316 318 339 343 342 342 343 345 346 346 347 349 349
Wind_Speed
10 8 9 8 8 8 8 8 7 8 8 7 8 8 8 7 6 6 7 6 7 7 7 6 5 5 5 4 4 5 5 6 5 4 4 4 4 4 5 4 3 4
12 11 9 8 7 6 6 8 8 8 9 8 8 7 7 6 6 6 7 7 6 7 7 6 5 5 4 4 4 5 5 4 5 3 4 4 5 4 5 4 4 2
11 10 11 10 10 10 9 8 8 8 8 9 8 7 7 6 7 6 6 7 7 7 6 6 5 5 5 4 4 5 5 5 5 4 4 5 5 4 5 4 4 4
12 13 13 12 11 11 9 8 8 8 7 7 8 8 8 7 7 7 6 7 6 6 6 5 6 5 4 4 4 4 4 5 6 4 5 4 4 4 5 4 4 4
14 13 12 11 10 10 8 9 9 9 9 10 9 8 7 7 7 7 7 6 6 6 5 6 5 5 4 4 4 5 4 5 4 4 5 5 4 3 5 3 4 5
11 11 11 11 10 9 10 11 11 10 10 9 10 8 8 8 8 8 7 7 6 6 6 5 5 5 5 5 4 5 5 5 4 3 4 4 4 4 4 4 4 5
13 11 11 10 9 9 10 11 10 9 10 10 7 8 8 8 8 9 8 8 7 7 7 6 6 6 5 4 4 5 5 4 4 4 4 4 3 4 4 4 4 5
13 11 11 10 10 9 10 10 10 9 9 7 8 10 8 9 10 9 8 8 8 8 8 7 7 7 6 5 6 6 5 4 5 5 5 5 4 5 5 4 4 4
12 12 12 12 12 10 10 10 10 10 8 9 10 9 8 9 10 9 8 8 8 8 8 8 8 8 6 6 7 7 7 6 5 5 6 6 6 6 5 4 4 5
12 12 13 13 13 12 11 11 10 9 8 9 9 7 8 8 8 9 7 7 8 8 7 8 8 8 7 8 9 8 8 8 6 6 6 6 6 6 6 5 6 5
14 13 13 14 14 12 13 12 10 9 8 9 8 8 8 8 8 7 7 7 8 8 8 7 8 8 8 8 8 8 8 8 7 6 6 7 7 6 6 6 6 6
14 13 14 15 14 13 14 13 12 10 9 8 9 10 9 8 9 8 8 9 9 9 9 9 8 7 8 9 9 7 6 6 6 6 6 6 7 7 6 6 7 7
14 14 14 13 13 13 12 12 12 12 11 11 9 9 10 10 9 9 9 9 10 9 9 9 9 8 8 8 8 7 7 7 7 7 7 6 6 7 6 6 7 7
15 14 14 14 13 12 11 12 12 12 12 11 9 10 10 10 10 10 9 9 10 10 10 9 8 8 7 8 8 8 8 7 8 8 8 7 7 6 6 7 8 8
13 12 12 12 12 12 12 12 12 12 12 11 10 10 10 11 10 10 10 9 9 9 9 9 9 9 8 8 8 8 8 9 9 9 9 8 7 7 7 7 7 7
13 12 12 12 12 13 13 13 13 12 12 11 12 12 11 11 10 10 10 11 10 10 9 9 9 8 11 15 13 10 9 9 8 9 9 9 9 8 7 8 8 8
12 13 12 13 13 13 12 12 13 12 12 12 12 11 12 11 11 12 12 11 11 11 11 10 10 10 15 15 16 17 12 9 9 9 8 9 9 9 9 9 8 8
14 13 13 13 13 14 13 13 13 12 13 13 12 13 12 11 11 12 12 12 11 11 11 11 11 13 16 15 16 17 15 11 9 9 8 8 9 9 9 9 9 8
13 13 14 14 14 14 14 13 13 13 14 13 14 13 11 11 13 12 12 12 12 12 12 12 11 15 17 17 16 17 18 15 10 9 9 9 10 10 10 10 8 8
13 14 14 15 14 13 13 13 13 14 14 13 12 11 12 13 13 13 12 12 12 12 12 12 12 15 17 18 17 18 18 15 11 11 10 10 11 11 10 10 10 9
13 14 14 14 14 13 13 13 14 14 14 13 12 13 13 13 13 13 13 12 13 13 12 12 12 17 17 18 18 18 18 15 11 11 10 10 10 10 11 11 11 10
13 14 14 13 13 13 14 14 14 14 14 12 11 11 11 11 11 12 13 13 13 13 13 14 13 17 17 18 19 19 18 11 11 11 12 12 11 11 10 10 10 10
13 14 14 14 14 14 15 15 14 14 13 11 11 12 12 12 13 13 12 13 13 13 14 14 14 16 18 19 19 20 14 10 11 11 11 12 12 11 11 11 10 10
12 13 14 14 13 14 15 14 13 12 12 11 13 13 13 13 12 11 12 12 14 15 15 14 14 15 18 19 20 20 17 13 11 11 11 12 12 12 10 10 11 16
11 12 13 13 13 14 13 14 13 13 12 11 12 11 12 11 11 11 12 12 13 14 17 17 14 15 18 19 21 20 17 11 11 10 11 12 11 12 11 10 10 11
8 10 12 12 13 13 12 13 11 11 11 12 12 11 11 11 11 11 13 12 12 13 13 14 15 14 15 21 21 21 21 14 10 10 12 13 12 11 10 10 10 10
Wind_Direction
185 187 194 193 193 194 189 190 194 194 196 194 198 206 207 214 205 200 203 201 204 207 208 210 208 208 214 210 209 209 205 209 214 204 215 219 235 234 244 248 241 224
191 191 195 198 197 193 192 193 193 196 197 198 203 203 207 205 212 202 202 200 203 210 211 209 208 208 210 208 201 199 207 200 214 192 204 217 227 225 242 248 250 250
191 192 195 199 201 198 193 193 193 199 197 203 201 202 206 206 206 208 205 199 200 210 213 215 212 213 206 206 194 195 198 200 216 203 195 216 223 221 242 249 251 249
194 195 197 202 204 203 196 187 197 201 203 199 204 206 204 207 202 205 209 204 202 207 211 214 218 218 211 204 194 201 201 203 213 195 200 220 226 224 245 247 254 265
195 197 200 202 205 204 195 195 197 198 200 204 204 204 205 204 201 205 204 208 204 210 208 216 218 222 219 210 192 203 201 203 209 190 198 217 232 220 244 243 255 257
197 198 200 200 202 196 198 202 203 198 202 203 205 201 205 203 203 204 202 203 206 207 211 215 217 220 215 219 202 205 199 197 196 182 196 213 231 227 240 239 244 253
194 193 199 201 202 201 203 206 205 202 203 204 199 206 203 203 207 208 204 203 202 205 208 211 217 220 212 211 213 218 211 202 191 187 200 222 218 240 243 245 244 248
194 192 194 196 202 206 210 207 204 203 203 197 198 208 198 204 208 210 207 202 202 206 207 209 213 217 210 199 213 221 224 206 203 196 207 223 216 234 236 234 243 250
193 192 190 193 199 205 212 211 209 207 195 196 205 204 202 205 207 208 206 202 206 208 207 208 209 213 208 202 213 215 220 218 207 201 206 215 223 232 234 231 241 246
198 198 193 193 198 203 209 215 214 210 200 204 207 202 201 209 209 208 204 201 208 211 210 212 211 213 209 207 212 212 217 219 211 206 208 214 221 228 231 225 234 247
200 196 198 199 200 200 206 209 214 215 210 211 207 210 208 206 213 207 205 203 209 212 212 213 214 212 213 215 216 212 215 217 212 209 210 212 217 223 225 225 232 235
200 199 201 202 203 204 204 204 207 212 215 216 213 215 213 211 211 211 208 210 212 214 213 216 215 212 213 218 218 214 212 215 214 213 215 213 214 217 220 220 230 238
200 202 202 203 204 206 206 205 205 208 210 216 215 219 217 216 216 215 217 215 217 216 217 216 216 211 211 215 217 212 209 209 213 215 219 218 218 217 215 217 225 234
203 201 202 203 203 204 207 210 210 208 208 209 207 215 221 222 220 218 220 219 222 221 220 217 217 215 212 214 214 212 209 212 211 215 220 223 224 218 213 214 219 227
201 201 203 203 202 201 204 208 212 214 213 209 206 211 215 221 224 223 221 223 227 227 227 222 220 219 213 210 211 213 212 216 215 216 217 222 226 225 216 215 218 220
199 199 200 201 201 203 205 206 209 211 214 215 215 212 213 214 219 223 223 222 223 225 227 228 227 226 220 212 208 209 209 217 219 220 220 221 223 227 227 218 219 219
198 200 198 200 203 205 205 205 208 209 211 214 216 218 217 215 215 219 222 222 221 222 223 226 229 230 225 215 213 211 209 212 216 221 220 222 224 226 231 229 225 222
200 198 200 203 201 204 204 205 206 208 212 212 213 216 217 217 219 220 221 222 222 222 224 225 229 231 228 222 216 214 212 213 215 219 220 221 224 227 232 234 234 231
199 199 201 203 204 204 204 203 204 207 211 213 214 215 212 214 220 220 221 221 222 223 225 224 228 227 226 224 220 216 215 215 221 216 217 221 222 225 229 232 233 233
199 201 203 206 206 205 204 204 205 209 210 212 214 211 212 217 218 219 221 220 221 223 227 227 226 227 221 221 221 219 216 210 225 221 220 222 222 223 226 229 229 228
202 203 205 206 205 204 205 207 208 212 211 210 210 210 212 215 215 217 219 220 221 221 225 228 229 224 217 217 219 218 217 207 221 225 227 227 225 224 225 226 228 226
202 204 207 207 205 205 206 209 209 209 210 210 211 215 216 215 216 216 217 218 219 219 222 229 231 222 216 215 216 217 213 207 217 223 226 230 230 227 225 227 228 225
203 205 208 207 205 206 209 210 210 210 212 205 209 214 215 214 216 215 217 217 217 217 219 226 230 222 214 214 214 214 204 210 215 221 227 230 234 231 228 227 226 224
203 206 208 208 207 209 210 212 211 212 211 203 207 210 214 217 216 219 217 216 216 218 217 222 228 222 211 213 212 209 198 207 213 217 227 230 236 236 232 230 227 222
209 209 208 208 209 212 211 210 209 209 208 203 209 211 217 216 216 220 221 220 219 220 218 218 226 225 212 211 210 207 199 211 210 215 225 231 232 237 234 234 234 228
221 216 214 212 212 214 211 211 209 207 205 205 208 210 214 213 216 218 221 223 221 221 221 218 224 227 216 210 208 206 197 203 209 210 222 229 231 232 239 235 233 236